STARLINK-34050, 64331

Orbit data source: Space-Track

STARLINK-34050, 64331 is a payload satellite owned by SpaceX/Seattle (US) in LEO that was launched on Tue, 10 Jun 2025 UTC via an FALCON 9 launch vehicle from the Air Force Eastern Test Range (AFETR). Payload-class satellites include a variety of spacecraft equipped with specific instruments for various scientific and technological missions. These include communications satellites like Starlink; space stations such as the ISS; scientific satellites like the Hubble; Earth observation satellites from companies like Planet Labs, Umbra, and HawkEye 360; GPS; miniature CubeSats for education and research; and military/defense satellites.

Loading next visibility...
Identifier
64331, 2025-124Q
Orbit
LEO
Last TLE update
10 hours ago
Origin
Manufacturer
SpaceX/Seattle
Mission
Operational spacecraft
Bus & Motor
STARLINK V2MO, Unknown motor
Mass
575 kg wet, ~530 kg dry
Launch date (UTC)
2025-06-10 (1 month ago)
Launch vehicle
FALCON 9
Launch site
Air Force Eastern Test Range (AFETR)
Object type
Payload
Rocket body
Debris
Shape & HBR
Unknown
Radar Cross Section
Large (>1 m²)

Expand to show TLE details & history

TLE from 10 hours ago
0 STARLINK-34050
1 64331U 25124Q   25199.94185372  .00039256  00000-0  94216-3 0  9996
2 64331  43.0026   4.2256 0002283 276.6390  83.4207 15.40699129  7064
Epoch: 2025-07-18T22:36Z
TLE epoch observation values (Epoch: 2025-07-18T22:36:16.161Z)
Latitude
0.00001°
Longitude
88.17219°
Altitude
443.641 km
Speed
7.648 km/s
True Right ascension
00h 16m 54s
True Declination
0° 00' 00"
Sunlit
Object was in full shadow at epoch
Visualization orbit readout
Latitude
-13.69583°
Longitude
-79.21579°
Altitude
446.202 km
Speed
7.646 km/s
Apparent Right ascension
11h 39m 19s
Apparent Declination
-28° 41' 50"
Sunlit
Object is in daylight
Visualization observer readout
Local Sidereal Time
21:37:24
Azimuth
284.707° WNW
Elevation
-62.613°
Doppler factor
1
Orbital elements
Apogee altitude
447.558 km
Perigee altitude
444.443 km
Semi-major axis
6,824.138 km
Eccentricity
0.00023
Inclination
43.0026°
RAAN
4.2256°
Arg. of periapsis
276.639°
True anomaly
83.44669°
Mean anomaly
83.4207°
Eccentric anomaly
83.43369°
Mean motion
3.8501 °/min
Orbital period
93.5 mins
BSTAR
0.00094216
Loading maneuver chart data...
Loading SW <> Apogee altitude chart data...
Loading historical data...
Loading historical data...
Loading historical data...
Loading historical data...
Loading historical data...
Loading historical data...
Loading historical data...
|